Weather History for Logan, UT

Change the Weather History Date:

Thursday, May 23, 2013

  Actual Average Record
Temperature  
Mean Temperature 52 °F -  
Max Temperature 66 °F 71 °F 87 °F (1958)
Min Temperature 37 °F 43 °F 26 °F (1966)
Degree Days  
Heating Degree Days 14    
Growing Degree Days 2 (Base 50)    
Moisture  
Dew Point 32 °F    
Average Humidity 50    
Maximum Humidity 79    
Minimum Humidity 28    
Precipitation  
Precipitation 0.00 in - - ()
Sea Level Pressure  
Sea Level Pressure 29.80 in    
Wind  
Wind Speed 7 mph (NW)    
Max Wind Speed 16 mph    
Max Gust Speed 23 mph    
Visibility 10 miles    
Events      
Averages and records for this station are not official NWS values.
T = Trace of Precipitation, MM = Missing Value Source: NWS Daily Summary

Daily Weather History Graph

Daily Weather History Graph

Search for Another Location

Airport:

Trip Planner

Search our weather history database for the weather conditions in past years. The results will help you decide how hot, cold, wet, or windy it might be!

Date:

Astronomy

May. 23, 2013 Rise Set
Actual Time 6:00 AM MDT 8:48 PM MDT
Civil Twilight 5:27 AM MDT 9:21 PM MDT
Nautical Twilight 4:46 AM MDT 10:02 PM MDT
Astronomical Twilight 3:59 AM MDT 10:50 PM MDT
Moon 7:24 PM MDT (5/23) 4:49 AM MDT (5/23)
Length of Visible Light 15h 53m
Length of Day
14h 48m
Waxing Gibbous, 97% of the Moon is Illuminated
May 23
Waxing Gibbous
May 24
Full
May 31
Last Quarter
Jun 8
New
Jun 16
First Quarter

Hourly Weather History & Observations

Time (MDT) Temp. Windchill Dew Point Humidity Pressure Visibility Wind Dir Wind Speed Gust Speed Precip Events Conditions
12:51 AM 42.1 °F 36.1 °F 27.0 °F 55% 29.79 in 10.0 mi North 10.4 mph - N/A   Clear
1:51 AM 39.9 °F 35.1 °F 28.0 °F 63% 29.80 in 10.0 mi North 6.9 mph - N/A   Clear
2:51 AM 39.0 °F 34.0 °F 28.9 °F 67% 29.83 in 10.0 mi North 6.9 mph - N/A   Clear
3:51 AM 37.0 °F 34.5 °F 28.9 °F 73% 29.86 in 10.0 mi NW 3.5 mph - N/A   Clear
4:51 AM 37.9 °F - 28.9 °F 70% 29.86 in 10.0 mi Calm Calm - N/A   Clear
5:51 AM 37.0 °F 32.4 °F 30.9 °F 79% 29.87 in 10.0 mi SW 5.8 mph - N/A   Clear
6:51 AM 37.9 °F 33.5 °F 30.9 °F 76% 29.88 in 10.0 mi SSW 5.8 mph - N/A   Clear
7:51 AM 41.0 °F - 30.0 °F 65% 29.88 in 10.0 mi Calm Calm - N/A   Clear
8:51 AM 45.0 °F - 28.9 °F 53% 29.85 in 10.0 mi Calm Calm - N/A   Clear
9:51 AM 48.0 °F - 32.0 °F 54% 29.83 in 10.0 mi North 4.6 mph - N/A   Clear
10:51 AM 51.1 °F - 33.1 °F 50% 29.80 in 10.0 mi Calm Calm - N/A   Clear
11:51 AM 55.0 °F - 34.0 °F 45% 29.77 in 10.0 mi Variable 3.5 mph - N/A   Clear
12:51 PM 57.0 °F - 34.0 °F 42% 29.76 in 10.0 mi WSW 3.5 mph - N/A   Clear
1:51 PM 60.1 °F - 36.0 °F 41% 29.73 in 10.0 mi Calm Calm - N/A   Clear
2:51 PM 64.9 °F - 36.0 °F 34% 29.71 in 10.0 mi NNW 4.6 mph - N/A   Clear
3:51 PM 66.0 °F - 39.0 °F 37% 29.71 in 10.0 mi North 8.1 mph - N/A   Clear
4:51 PM 64.0 °F - 34.0 °F 33% 29.73 in 10.0 mi SSW 4.6 mph - N/A   Clear
5:51 PM 64.9 °F - 35.1 °F 33% 29.70 in 10.0 mi WNW 12.7 mph - N/A   Clear
6:51 PM 64.9 °F - 30.9 °F 28% 29.67 in 10.0 mi WNW 10.4 mph - N/A   Clear
7:51 PM 61.0 °F - 34.0 °F 36% 29.70 in 10.0 mi WNW 9.2 mph - N/A   Clear
8:51 PM 55.0 °F - 33.1 °F 43% 29.78 in 10.0 mi NNW 16.1 mph - N/A   Clear
9:02 PM 53.6 °F - 32.0 °F 44% 29.86 in 10.0 mi North 13.8 mph 23.0 mph N/A   Scattered Clouds
9:51 PM 53.1 °F - 28.9 °F 40% 29.86 in 10.0 mi North 12.7 mph - N/A   Overcast
10:51 PM 52.0 °F - 28.0 °F 40% 29.92 in 10.0 mi NNE 13.8 mph - N/A   Overcast
11:51 PM 52.0 °F - 28.9 °F 41% 29.90 in 10.0 mi North 15.0 mph 23.0 mph N/A   Overcast